User: anonymous   Login
Location: Overspoor
(51.4747°N, 5.6641°E)
Time: 12:42:31
(UTC+01:00)
Language:

FENGYUN 1C DEB - Orbit

View from above orbital plane
View from above orbital plane
View from above satellite
View from above satellite

Ground track
Ground track

The orbit data is extracted from the following two-line orbital elements,

1 37708U 99025ELZ 22302.02815912  .00003724  00000-0  72226-3 0  9995
2 37708  98.4248  47.5401 0329807  24.5872 337.0643 14.34530396756990
Epoch (UTC): 29 October 2022 00:40:32
Eccentricity: 0.0329807
inclination: 98.4248°
perigee height: 540 km
apogee height: 1012 km
right ascension of ascending node: 47.5401°
argument of perigee: 24.5872°
revolutions per day: 14.34530396
mean anomaly at epoch: 337.0643°
orbit number at epoch: 75699

The dashed part of the orbit path shows where the satellite is in the earth's shadow,  

DLR